Hourly Data Report for January 09, 2022

OTTAWA INTL A
ONTARIO
Current Station Operator: NAVCAN

45°19'00.000" N
75°40'00.000" W
114.90 m
6106001
71628
YOW

Download Data

Hourly Data (January 2022)
Hourly Data Report for January 9, 2022
TIME
LST
Temp Definition
°C
Dew Point Definition
°C
Rel Hum Definition
%
Precip. Amount Definition
mm

Wind Dir Definition
10's deg

Wind Spd Definition
km/h
Visibility Definition
km
Stn Press Definition
kPa
Hmdx Definition


Wind Chill Definition


Weather Definition


00:00 -12.8 -16.4 74   9 10 24.1 100.84   -19 LegendNANA
01:00 -11.9 -15.5 75   7 16 24.1 100.67   -19 Mostly Cloudy
02:00 -11.5 -14.6 78   9 14 16.1 100.61   -18 Snow
03:00 -10.6 -13.5 79   8 14 24.1 100.47   -17 LegendNANA
04:00 -9.8 -12.4 82   8 12 24.1 100.29   -16 Cloudy
05:00 -8.9 -11.3 83   9 13 24.1 100.08   -15 LegendNANA
06:00 -7.8 -10.0 84   10 13 24.1 99.96   -14 LegendNANA
07:00 -7.0 -9.0 85   9 10 24.1 99.81   -12 Cloudy
08:00 -6.5 -8.0 90   7 9 6.4 99.74   -11 Freezing Drizzle, Fog
09:00 -2.3 -2.9 96   17 15 2.4 99.59   -7 Freezing Drizzle, Fog
10:00 -1.6 -2.1 96   17 16 1.6 99.48   -7 Snow
11:00 -0.4 -0.9 97   19 14 1.2 99.34   -5 Snow
12:00 0.5 0.0 97   20 17 3.2 99.22     Snow
13:00 1.2 0.7 97   21 17 9.7 99.15     Drizzle, Fog
14:00 1.6 1.0 96   21 16 24.1 99.05     LegendNANA
15:00 2.4 0.9 90   23 27 16.1 99.04     Drizzle
16:00 1.2 -1.4 83   27 32 24.1 99.16     Mostly Cloudy
17:00 0.8 -2.1 81   26 22 24.1 99.30     Snow Showers
18:00 0.1 -3.6 76   25 19 24.1 99.37     LegendNANA
19:00 -0.9 -8.8 55   26 54 24.1 99.52   -10 Mostly Cloudy
20:00 -2.8 -11.9 50   27 34 12.9 99.67   -11 LegendNANA
21:00 -4.3 -12.0 55   27 36 12.9 99.84   -13 LegendNANA
22:00 -5.8 -12.8 58   29 46 24.1 99.99   -16 Mostly Cloudy
23:00 -6.8 -14.7 53   29 34 24.1 100.09   -16 LegendNANA

Notes on Data Quality.

Legend

  • E = Estimated
  • M = Missing
  • NA = Not Available*
  • [empty] = Indicates an unobserved value
Date modified: